TimePDT,TemperatureF,Dew PointF,Humidity,Sea Level PressureIn,VisibilityMPH,Wind Direction,Wind SpeedMPH,Gust SpeedMPH,PrecipitationIn,Events,Conditions,WindDirDegrees,DateUTC
12:53 AM,55.0,48.0,77,29.75,10.0,Calm,Calm,-,N/A,,Clear,0,2012-10-17 07:53:00
1:53 AM,55.0,48.0,77,29.76,10.0,Calm,Calm,-,N/A,,Clear,0,2012-10-17 08:53:00
2:53 AM,52.0,46.9,83,29.76,10.0,Calm,Calm,-,N/A,,Clear,0,2012-10-17 09:53:00
3:53 AM,53.1,46.9,80,29.76,10.0,Calm,Calm,-,N/A,,Clear,0,2012-10-17 10:53:00
4:53 AM,51.1,46.0,83,29.76,10.0,Calm,Calm,-,N/A,,Clear,0,2012-10-17 11:53:00
5:53 AM,52.0,46.0,80,29.77,10.0,Calm,Calm,-,N/A,,Clear,0,2012-10-17 12:53:00
6:53 AM,53.1,46.0,77,29.78,10.0,SE,3.5,-,N/A,,Clear,140,2012-10-17 13:53:00
7:53 AM,62.1,48.9,62,29.77,10.0,Calm,Calm,-,N/A,,Clear,0,2012-10-17 14:53:00
8:53 AM,81.0,45.0,28,29.78,10.0,Variable,4.6,-,N/A,,Clear,0,2012-10-17 15:53:00
9:53 AM,90.0,35.1,14,29.78,10.0,ENE,3.5,-,N/A,,Clear,60,2012-10-17 16:53:00
10:53 AM,93.0,34.0,12,29.78,10.0,Calm,Calm,-,N/A,,Clear,0,2012-10-17 17:53:00
11:53 AM,95.0,32.0,11,29.77,10.0,Calm,Calm,-,N/A,,Clear,0,2012-10-17 18:53:00
12:53 PM,97.0,32.0,10,29.75,10.0,ENE,10.4,17.3,N/A,,Clear,70,2012-10-17 19:53:00
1:53 PM,97.0,32.0,10,29.74,10.0,NE,15.0,20.7,N/A,,Clear,50,2012-10-17 20:53:00
2:53 PM,96.1,32.0,10,29.74,10.0,ENE,16.1,-,N/A,,Clear,70,2012-10-17 21:53:00
3:53 PM,93.9,30.9,11,29.75,10.0,ENE,15.0,-,N/A,,Clear,70,2012-10-17 22:53:00
4:53 PM,91.9,32.0,12,29.76,10.0,East,17.3,23.0,N/A,,Partly Cloudy,80,2012-10-17 23:53:00
5:53 PM,88.0,32.0,14,29.76,10.0,ENE,12.7,-,N/A,,Partly Cloudy,70,2012-10-18 00:53:00
6:53 PM,84.9,33.1,16,29.79,10.0,ENE,12.7,-,N/A,,Clear,70,2012-10-18 01:53:00
7:53 PM,81.0,33.1,18,29.81,10.0,East,5.8,-,N/A,,Clear,90,2012-10-18 02:53:00
8:53 PM,81.0,34.0,18,29.82,10.0,ENE,13.8,-,N/A,,Clear,70,2012-10-18 03:53:00
9:53 PM,81.0,34.0,18,29.82,10.0,ENE,10.4,-,N/A,,Clear,60,2012-10-18 04:53:00
10:53 PM,79.0,34.0,20,29.84,10.0,ENE,8.1,-,N/A,,Clear,70,2012-10-18 05:53:00
11:53 PM,71.1,36.0,28,29.85,10.0,East,5.8,-,N/A,,Clear,100,2012-10-18 06:53:00